Wind_Speed
8 7 6 4 3 2 1 3 4 4 4 2 3 4 5 5 6 6 7 6 6 6 5 5 6 5 5 5 5 5 5 5 5 5 5 5 6 5 6 6 5 4 4 4
8 8 5 5 6 6 4 5 4 5 3 3 4 5 4 5 6 7 7 7 6 6 5 5 5 5 5 4 5 5 5 5 5 5 5 5 6 6 6 6 5 5 4 3
9 9 8 9 8 7 7 6 5 5 4 4 5 6 5 5 6 7 7 6 6 6 5 4 5 5 5 5 5 5 6 6 5 5 5 6 6 6 6 5 5 5 4 4
12 11 10 11 10 9 8 7 7 6 6 7 7 9 6 4 6 7 7 7 6 6 5 5 4 5 5 5 5 5 6 6 6 6 5 6 6 6 6 6 5 5 5 4
12 13 12 13 11 10 10 9 9 8 8 7 6 10 9 6 5 5 6 7 7 6 6 6 5 5 5 5 5 5 6 6 7 7 7 7 7 7 7 7 5 5 6 6
13 13 14 14 12 13 12 10 10 9 10 10 7 9 8 7 6 6 6 7 8 8 7 7 6 6 6 6 6 6 6 6 7 7 8 8 9 9 9 7 6 6 7 7
13 14 14 14 14 14 14 12 10 10 9 10 7 8 8 8 10 10 9 9 8 8 8 8 7 7 7 7 7 7 7 7 8 8 8 9 9 9 9 9 8 8 8 8
14 15 14 15 15 15 14 12 11 11 9 9 9 9 9 10 12 12 10 10 10 9 9 10 10 9 9 9 9 9 8 8 9 9 9 10 10 10 10 11 10 9 9 9
14 14 15 16 16 16 15 14 13 14 13 12 10 10 11 13 13 12 12 12 12 11 11 11 11 12 11 11 12 10 10 10 10 10 10 11 11 11 11 12 12 12 12 11
20 18 18 17 17 18 17 16 15 15 14 15 13 12 14 15 13 12 12 13 13 13 13 13 13 13 13 13 13 12 12 12 12 12 12 12 12 13 13 14 14 13 13 13
21 20 19 19 18 18 18 18 19 18 16 15 13 13 13 17 16 14 14 14 15 15 14 14 14 15 15 14 13 14 14 14 14 13 13 14 14 14 14 15 15 15 14 14
25 24 22 20 20 20 20 21 21 20 19 18 17 18 16 16 15 16 16 17 18 17 17 17 17 17 17 16 16 15 15 15 16 15 15 15 15 16 16 16 16 16 16 16
26 25 23 21 21 21 21 22 21 21 21 21 19 21 20 17 16 18 19 20 20 19 18 18 19 18 18 18 18 17 17 17 18 17 17 17 17 18 18 18 19 18 18 18
27 26 26 24 21 19 20 21 21 22 23 23 22 23 23 22 22 23 22 22 21 21 20 20 20 19 19 20 20 19 19 19 19 19 19 19 19 19 19 19 19 20 19 19
29 29 28 28 26 24 24 24 24 24 24 25 24 26 25 26 26 24 24 25 25 24 22 22 22 21 21 21 21 21 20 20 20 20 20 21 21 21 21 21 21 21 21 20
30 30 30 29 28 27 27 27 26 25 25 27 27 29 28 28 29 27 26 27 26 26 25 24 24 23 23 24 24 23 22 22 22 23 22 22 23 22 22 22 23 23 23 23
30 31 31 30 29 30 30 29 27 27 27 27 28 30 31 31 33 33 30 29 29 27 26 25 26 26 25 26 25 25 25 25 25 25 25 24 25 24 24 24 25 25 25 26
30 30 31 30 30 32 31 30 29 28 29 29 31 32 33 34 35 35 34 31 30 29 28 27 28 29 27 27 28 28 28 28 27 27 27 27 26 27 27 27 27 27 26 26
29 30 30 30 31 31 31 30 30 31 32 30 31 33 34 35 36 35 34 32 32 31 30 29 29 30 30 30 30 30 30 29 29 29 29 29 29 29 28 28 28 28 28 29
30 30 31 30 30 30 31 31 30 31 33 31 32 33 34 35 36 36 34 33 33 33 32 30 30 31 31 32 32 31 31 30 30 30 30 30 30 30 31 30 30 30 30 31
29 30 30 31 31 33 32 33 31 32 34 33 34 35 35 36 38 37 36 36 34 34 33 32 33 33 33 33 33 33 32 31 31 31 30 30 31 31 31 31 31 32 32 32
27 28 30 30 32 34 34 34 34 35 36 36 36 36 37 37 37 38 36 36 34 34 34 34 34 34 34 34 34 33 32 31 31 31 31 31 31 32 33 33 33 33 34 34
28 28 29 31 33 33 34 36 37 37 37 37 37 37 37 37 38 38 38 37 35 35 34 34 35 35 35 35 34 34 33 33 33 33 33 33 33 33 34 34 34 35 35 35
29 30 31 33 34 35 35 36 37 38 37 37 38 38 37 37 38 38 39 38 37 37 36 36 35 35 35 36 36 35 34 34 34 34 35 35 35 34 35 35 35 35 35 35
31 32 33 35 35 36 36 35 36 36 36 36 36 37 38 38 38 38 38 37 37 37 37 37 37 37 37 36 36 35 35 35 35 35 35 35 35 34 34 35 35 35 36 36
32 33 34 35 35 36 37 37 37 37 38 37 37 38 38 38 39 39 39 37 36 36 37 37 36 37 36 36 36 36 36 36 36 36 35 35 35 35 35 35 35 34 35 35
Wind_Direction
201 200 219 234 226 217 213 258 274 270 290 296 310 330 328 332 335 340 350 360 4 4 5 9 17 26 30 33 30 26 25 26 24 24 22 16 13 12 12 14 12 10 10 12
210 226 230 237 244 237 224 243 273 275 279 295 296 307 324 329 325 328 336 344 352 357 0 5 11 20 26 29 30 25 23 17 15 11 6 7 3 3 5 4 6 6 360 354
216 228 236 240 240 237 233 237 247 266 268 267 283 294 291 300 315 321 325 330 339 344 346 354 6 13 17 16 15 15 15 11 6 4 358 352 352 355 355 353 352 353 351 340
221 223 233 241 239 238 243 244 252 259 256 262 265 278 269 274 306 317 321 322 328 329 336 335 345 353 357 359 4 1 358 353 348 348 345 341 336 337 340 339 336 339 339 332
225 226 229 237 243 241 242 244 248 251 252 255 263 279 280 258 267 296 312 310 310 306 311 323 328 329 336 342 347 349 348 343 339 333 328 328 328 328 328 328 328 328 331 332
226 229 232 235 238 241 241 243 246 249 253 250 251 271 282 281 277 284 290 297 299 297 299 306 311 313 316 323 327 332 333 332 333 329 324 319 322 323 324 324 320 318 319 324
229 235 236 234 234 237 237 236 250 267 269 275 269 264 270 276 282 281 275 286 295 294 290 291 295 300 302 309 311 317 321 322 322 321 318 316 319 324 327 325 319 317 316 317
235 241 237 236 238 238 241 234 242 255 264 269 269 261 266 274 276 278 275 283 288 287 285 285 289 288 295 297 300 304 307 308 309 311 312 313 315 318 322 322 314 308 311 313
230 243 241 243 240 237 238 242 244 256 257 256 255 261 263 274 278 282 284 281 280 283 283 282 286 288 289 293 293 294 300 301 301 302 305 308 311 312 313 315 311 306 304 304
232 233 237 241 244 244 238 234 240 244 257 258 250 250 261 269 274 273 279 281 280 278 278 280 283 287 287 285 287 290 291 296 298 299 301 304 306 307 308 309 310 304 300 297
233 234 236 236 237 241 244 237 237 243 245 258 264 261 264 268 267 268 271 279 284 280 275 276 279 281 284 283 281 284 287 290 292 294 296 299 303 305 305 306 306 304 299 296
236 236 237 238 236 239 241 240 237 242 244 245 255 263 266 266 269 271 267 270 275 276 275 274 275 277 280 280 279 280 283 286 287 289 293 296 299 302 303 303 304 304 303 301
236 234 236 240 241 240 242 241 238 240 246 250 250 261 266 264 258 260 264 268 271 271 272 273 273 276 278 278 278 280 281 283 285 287 290 293 297 298 299 299 300 299 298 298
238 236 235 235 237 239 241 240 240 238 240 246 248 255 261 260 259 259 262 266 269 271 272 272 273 274 274 275 276 278 279 281 283 285 286 289 292 293 294 294 295 296 295 295
241 241 240 238 237 236 239 240 242 243 241 243 248 253 256 259 263 263 265 265 266 269 270 270 271 272 272 273 275 278 279 280 282 283 285 287 289 290 290 291 293 295 296 298
242 242 242 242 243 243 241 242 244 245 245 243 246 252 253 257 260 258 262 265 266 268 269 269 269 271 271 272 273 277 278 279 281 281 283 285 287 288 288 289 292 295 295 296
246 246 245 245 246 246 243 241 242 243 246 247 248 251 254 256 259 261 261 262 266 268 270 270 269 270 271 270 272 275 276 277 278 280 281 284 286 286 287 288 289 292 293 293
249 249 249 249 249 249 247 246 245 247 247 247 249 252 254 256 259 262 264 264 265 268 270 270 270 270 270 270 270 273 274 275 277 279 282 284 285 286 287 286 286 288 290 292
252 251 250 250 251 253 251 248 247 248 248 248 250 253 256 257 258 260 262 263 266 268 270 270 269 270 270 271 271 272 272 273 274 276 278 280 282 283 284 284 284 285 287 290
254 253 251 250 250 252 254 252 248 250 253 251 250 252 254 256 257 259 260 263 266 269 269 269 269 270 271 272 272 271 272 272 273 274 275 277 279 280 281 282 283 284 286 288
253 254 253 251 252 252 252 254 251 249 250 251 252 255 255 255 257 258 260 262 264 266 267 268 269 270 271 272 272 270 270 271 272 273 274 275 277 278 279 281 283 284 286 287
251 253 254 252 252 253 253 253 252 251 252 255 257 260 260 259 258 258 259 261 264 265 266 267 270 270 271 272 272 270 269 269 271 273 274 275 276 278 279 280 283 284 285 287
250 251 252 251 251 254 256 255 255 255 256 257 258 260 261 260 257 258 259 260 262 265 267 268 269 270 270 271 271 270 269 269 270 271 273 274 275 276 278 281 282 284 285 286
252 252 253 253 252 253 256 258 259 259 259 259 260 260 261 261 259 258 259 261 262 263 266 267 268 269 269 269 269 269 267 267 269 270 271 273 274 277 278 280 282 283 284 285
252 254 256 256 256 256 258 260 260 260 260 260 260 260 260 260 259 259 259 260 262 263 265 267 268 268 268 268 267 266 266 266 268 270 271 272 274 276 278 280 281 282 283 284
255 256 257 258 259 259 260 260 261 259 258 259 260 260 260 258 258 258 258 259 262 263 264 266 267 268 268 266 265 266 266 266 268 269 271 272 274 276 277 279 280 281 282 282
Height
5901 5904 5905 5905 5907 5909 5910 5912 5913 5914 5913 5913 5913 5912 5911 5909 5909 5909 5908 5907 5907 5907 5906 5905 5905 5904 5904 5903 5903 5903 5902 5902 5902 5902 5902 5902 5901 5901 5900 5899 5899 5899 5899 5898
5900 5902 5905 5905 5907 5908 5910 5911 5912 5913 5913 5912 5912 5912 5911 5910 5910 5910 5909 5908 5907 5907 5906 5906 5906 5905 5905 5904 5904 5904 5903 5903 5903 5903 5903 5903 5902 5901 5901 5900 5899 5899 5899 5899
5900 5903 5904 5905 5907 5908 5909 5910 5912 5912 5912 5911 5912 5911 5911 5910 5909 5909 5910 5909 5907 5907 5907 5907 5907 5906 5906 5905 5905 5905 5904 5904 5904 5904 5903 5903 5903 5902 5901 5901 5900 5900 5899 5899
5898 5900 5902 5903 5905 5906 5908 5909 5910 5911 5910 5910 5911 5910 5909 5909 5909 5909 5909 5908 5907 5907 5907 5907 5907 5907 5906 5906 5906 5905 5905 5905 5905 5904 5904 5904 5903 5903 5902 5901 5900 5900 5900 5899
5895 5898 5900 5902 5903 5905 5906 5907 5908 5909 5908 5908 5909 5909 5908 5906 5908 5909 5909 5908 5908 5907 5907 5907 5907 5907 5907 5906 5906 5906 5906 5905 5905 5905 5904 5904 5903 5903 5902 5901 5901 5900 5900 5899
5893 5896 5898 5900 5902 5904 5905 5906 5907 5906 5905 5906 5907 5908 5907 5906 5906 5907 5908 5908 5908 5907 5907 5907 5906 5906 5906 5906 5906 5906 5905 5905 5905 5904 5904 5903 5903 5902 5902 5901 5901 5900 5899 5899
5890 5892 5895 5898 5900 5902 5903 5905 5905 5905 5904 5905 5906 5907 5906 5907 5907 5907 5907 5907 5906 5907 5906 5906 5905 5905 5906 5906 5905 5905 5905 5905 5904 5904 5903 5903 5902 5902 5902 5901 5900 5899 5899 5898
5888 5891 5893 5895 5897 5899 5900 5902 5904 5904 5905 5905 5905 5904 5905 5906 5906 5906 5906 5906 5905 5904 5905 5905 5905 5904 5904 5904 5904 5904 5904 5904 5903 5903 5903 5902 5902 5901 5901 5900 5899 5899 5898 5897
5885 5888 5890 5891 5893 5896 5897 5899 5901 5902 5901 5903 5904 5904 5904 5904 5905 5904 5904 5904 5903 5903 5903 5903 5903 5903 5903 5903 5903 5903 5902 5902 5902 5902 5902 5901 5900 5900 5899 5898 5897 5897 5896 5896
5880 5883 5886 5888 5890 5892 5894 5896 5898 5899 5899 5900 5900 5900 5901 5901 5901 5902 5902 5902 5901 5901 5901 5901 5900 5900 5901 5901 5900 5900 5901 5901 5900 5900 5900 5899 5899 5898 5897 5896 5896 5895 5894 5893
5875 5878 5881 5884 5886 5888 5890 5892 5894 5895 5896 5898 5897 5899 5897 5898 5898 5898 5899 5899 5899 5899 5899 5899 5899 5898 5898 5898 5898 5898 5898 5898 5898 5898 5897 5897 5896 5895 5895 5894 5893 5892 5891 5891
5870 5873 5875 5879 5881 5884 5885 5887 5890 5892 5892 5894 5894 5896 5893 5894 5895 5895 5895 5896 5896 5896 5896 5896 5896 5896 5895 5895 5895 5895 5895 5895 5895 5895 5894 5894 5893 5893 5892 5891 5890 5889 5888 5887
5864 5868 5871 5874 5878 5879 5880 5882 5885 5887 5889 5889 5891 5892 5890 5889 5889 5890 5891 5891 5892 5892 5892 5892 5892 5892 5892 5892 5892 5892 5892 5891 5891 5891 5891 5890 5890 5889 5889 5888 5887 5886 5884 5883
5858 5861 5865 5869 5871 5873 5874 5876 5879 5881 5883 5884 5886 5886 5886 5886 5885 5884 5885 5886 5886 5887 5888 5888 5887 5888 5888 5887 5887 5888 5887 5887 5887 5887 5887 5886 5886 5885 5884 5883 5882 5881 5880 5879
5851 5854 5857 5860 5863 5866 5867 5869 5872 5874 5876 5879 5880 5879 5880 5879 5878 5878 5879 5880 5880 5881 5882 5882 5882 5882 5882 5882 5882 5882 5882 5882 5882 5882 5882 5882 5881 5880 5879 5879 5878 5877 5876 5875
5844 5846 5849 5852 5856 5858 5860 5863 5865 5868 5870 5871 5873 5872 5873 5874 5872 5871 5872 5873 5873 5874 5875 5876 5877 5877 5877 5877 5877 5877 5877 5877 5877 5877 5876 5876 5876 5875 5874 5874 5873 5872 5871 5870
5837 5839 5842 5845 5849 5850 5853 5856 5858 5860 5862 5864 5865 5866 5866 5866 5865 5864 5864 5866 5867 5867 5869 5870 5870 5870 5871 5871 5871 5872 5872 5871 5871 5871 5870 5870 5870 5869 5869 5868 5867 5867 5866 5864
5830 5832 5835 5838 5841 5842 5847 5848 5850 5852 5854 5856 5856 5857 5857 5858 5858 5858 5858 5858 5860 5861 5862 5863 5863 5863 5864 5864 5864 5865 5865 5865 5864 5864 5864 5863 5863 5863 5862 5862 5861 5860 5859 5858
5822 5824 5827 5830 5832 5834 5837 5839 5841 5843 5844 5846 5847 5848 5849 5848 5849 5849 5849 5850 5852 5854 5855 5855 5856 5856 5857 5857 5857 5858 5857 5857 5857 5857 5857 5856 5856 5856 5855 5855 5854 5853 5852 5851
5815 5817 5819 5821 5824 5826 5829 5830 5832 5835 5834 5837 5837 5838 5839 5839 5839 5840 5841 5843 5844 5846 5847 5847 5848 5848 5849 5849 5849 5849 5849 5849 5849 5849 5849 5848 5848 5848 5847 5847 5846 5845 5844 5843
5807 5809 5811 5813 5815 5816 5819 5820 5823 5826 5826 5827 5827 5828 5828 5829 5830 5832 5833 5834 5836 5837 5838 5839 5839 5840 5840 5841 5841 5840 5840 5841 5841 5840 5840 5840 5840 5839 5839 5838 5837 5836 5835 5834
5800 5802 5803 5805 5806 5809 5809 5811 5813 5813 5815 5817 5817 5818 5819 5820 5821 5822 5823 5824 5826 5827 5829 5830 5830 5830 5831 5831 5831 5831 5831 5832 5832 5832 5832 5831 5831 5831 5830 5829 5828 5827 5826 5825
5792 5794 5795 5796 5799 5799 5799 5800 5802 5803 5805 5806 5807 5809 5810 5810 5811 5813 5814 5815 5817 5818 5819 5820 5820 5821 5821 5821 5821 5821 5822 5822 5823 5823 5822 5822 5822 5821 5821 5820 5819 5818 5817 5815
5784 5784 5785 5786 5787 5789 5789 5790 5792 5793 5795 5796 5797 5798 5799 5800 5801 5802 5804 5805 5807 5808 5809 5810 5810 5811 5811 5811 5811 5811 5812 5812 5813 5813 5812 5812 5812 5812 5811 5810 5810 5808 5807 5805
5774 5775 5776 5777 5778 5779 5780 5781 5782 5783 5784 5786 5787 5787 5788 5789 5790 5792 5794 5795 5797 5798 5799 5799 5799 5799 5800 5800 5800 5801 5802 5802 5802 5802 5802 5802 5802 5802 5801 5801 5800 5798 5797 5795
5766 5766 5767 5767 5768 5769 5771 5771 5772 5773 5774 5775 5776 5776 5777 5779 5780 5781 5783 5785 5786 5787 5788 5788 5788 5788 5789 5789 5790 5790 5791 5791 5791 5792 5792 5792 5791 5791 5790 5790 5789 5787 5786 5785